Lid_Strength_Index
5 8 9 7 6 6 7 8 8 7 6 7 9 11 9 7 7 7 6 5 5 5 3 2 2 1 1 1 1 1 1 0 0 1 1 1 1 1 0 -0 -1 -2 -2 -1
6 9 6 5 6 6 7 8 8 6 6 7 10 11 9 8 8 7 6 5 5 4 4 3 2 2 1 1 1 1 1 0 0 0 0 0 1 0 0 -0 -1 -2 -2 -2
8 7 5 6 6 7 7 8 8 8 6 6 7 12 11 8 7 7 5 5 4 4 4 3 3 2 2 2 1 1 1 1 0 -0 0 -0 -1 0 1 0 0 -1 -1 -2
7 5 6 7 7 7 9 6 7 7 9 10 7 13 12 10 9 9 8 5 5 4 4 3 3 3 2 2 1 1 1 1 0 -0 0 0 1 2 1 1 0 -0 -1 -1
7 7 7 7 7 6 8 6 7 7 8 9 9 11 9 9 11 10 8 5 5 4 4 4 3 2 2 1 1 1 1 1 0 0 0 1 1 1 0 0 1 0 -1 -1
7 5 5 6 5 6 5 6 7 7 8 11 9 10 10 10 10 9 8 7 5 4 4 3 3 2 2 1 1 1 1 1 1 0 0 1 1 1 1 1 1 1 0 -0
8 7 6 5 7 6 6 8 12 12 12 13 9 10 9 7 7 8 8 7 6 4 4 4 3 3 2 2 2 1 2 2 1 1 1 1 1 1 1 1 1 1 1 1
10 11 7 5 7 8 7 8 11 15 14 12 8 11 9 6 5 6 6 6 6 4 4 3 3 3 3 2 2 2 2 2 1 1 1 0 0 1 1 0 0 0 0 0
10 10 6 6 5 6 8 9 7 10 9 11 10 8 6 5 6 5 6 6 7 5 4 4 3 3 3 2 2 2 2 2 1 1 1 1 1 1 1 0 -0 0 -0 -0
7 11 7 6 5 6 7 6 10 10 14 15 11 10 10 7 6 6 7 6 6 5 5 4 3 3 2 2 2 1 1 2 1 1 1 1 1 0 0 0 0 0 -0 -0
7 8 9 7 8 8 8 9 9 9 10 13 14 11 6 6 6 5 7 6 5 5 5 5 4 2 2 2 2 2 2 2 2 1 1 1 1 1 0 0 0 0 -0 -0
6 8 10 9 6 6 7 8 8 12 13 11 11 11 6 5 5 5 4 4 5 5 5 5 5 4 2 2 2 2 2 2 1 1 1 1 1 1 1 1 0 0 0 -0
7 9 12 10 8 6 8 7 7 8 8 11 13 11 6 5 5 4 4 4 3 5 5 4 4 4 3 2 2 2 2 2 1 1 1 1 1 1 1 1 0 0 0 0
7 9 10 12 10 9 9 8 8 8 10 10 10 9 7 7 7 6 5 4 3 3 5 5 4 4 3 2 2 2 2 1 1 1 1 2 1 1 1 1 1 0 0 0
7 11 10 9 9 9 9 9 8 9 9 10 9 9 7 7 7 6 5 5 4 4 3 3 3 4 4 3 2 2 2 1 1 2 2 2 1 1 1 1 1 0 0 0
6 10 9 11 9 9 10 9 9 8 8 8 8 9 7 6 6 6 5 5 5 4 4 3 3 3 3 3 3 2 2 2 1 2 2 1 1 1 1 1 1 1 1 1
8 9 11 13 10 10 12 9 9 9 8 8 9 8 8 8 8 7 6 7 6 4 5 3 3 3 3 3 2 2 2 1 2 2 2 2 1 2 1 1 1 1 1 1
9 10 11 14 11 18 10 7 7 8 8 7 7 6 7 9 8 8 7 7 6 6 6 4 3 2 2 3 2 2 2 2 2 2 2 2 2 2 1 1 1 1 1 1
6 9 13 16 15 12 9 8 8 9 9 7 7 6 5 7 8 9 7 6 6 6 5 3 2 2 2 2 2 2 2 2 2 2 2 2 2 2 2 2 2 1 1 1
7 7 12 13 16 17 9 6 5 6 11 6 6 7 7 5 9 9 7 7 5 4 3 3 2 2 2 2 2 2 2 2 3 2 2 1 1 2 2 2 2 1 1 1
12 11 15 15 15 11 7 5 5 13 11 6 6 6 6 7 6 5 4 6 3 3 3 2 3 3 2 2 2 3 2 3 2 1 1 1 1 1 1 1 1 1 1 1
13 15 15 14 15 17 7 7 10 8 6 6 6 6 6 5 5 5 4 3 3 4 3 3 3 3 2 2 2 3 3 2 1 2 2 2 1 1 1 1 1 1 1 2
14 12 14 13 13 7 6 7 5 5 6 6 5 5 5 5 5 5 4 4 4 4 3 3 3 3 2 2 2 3 2 2 1 2 2 2 1 1 1 2 2 2 2 2
9 9 12 12 8 8 7 7 7 6 6 5 4 5 5 6 6 5 4 4 5 4 5 5 4 4 3 2 2 2 2 1 2 2 2 2 2 2 2 1 2 2 2 2
10 9 11 12 10 10 9 8 7 7 6 6 4 4 5 5 5 5 5 6 6 6 6 5 5 5 6 5 3 2 2 2 2 2 2 2 2 2 2 2 2 2 1 2
9 10 13 13 10 11 10 8 8 8 7 5 5 5 5 4 5 4 5 5 5 6 6 7 7 7 7 7 6 4 3 3 2 3 2 2 2 2 2 2 2 15 14 16